Date,TemperatureHighF,TemperatureAvgF,TemperatureLowF,DewpointHighF,DewpointAvgF,DewpointLowF,HumidityHigh,HumidityAvg,HumidityLow,PressureMaxIn,PressureMinIn,WindSpeedMaxMPH,WindSpeedAvgMPH,GustSpeedMaxMPH,PrecipitationSumIn
2013-1-1,23,12,2,-100,-100,-100,0,0,100,0.00,40.00,0,-999,0,0.01
2013-1-2,19,10,1,-100,-100,-100,0,0,100,0.00,40.00,0,-999,0,0.01
2013-1-3,29,17,-2,-100,-100,-100,0,0,100,0.00,40.00,0,-999,0,0.00
2013-1-4,45,30,21,-100,-100,-100,0,0,100,0.00,40.00,0,-999,0,0.00
2013-1-5,33,26,18,-100,-100,-100,0,0,100,0.00,40.00,0,-999,0,0.05
2013-1-6,44,32,26,-100,-100,-100,0,0,100,0.00,40.00,0,-999,0,0.01
2013-1-7,47,39,32,-100,-100,-100,0,0,100,0.00,40.00,0,-999,0,0.09
2013-1-8,47,41,37,-100,-100,-100,0,0,100,0.00,40.00,0,-999,0,0.01
2013-1-9,45,37,25,-100,-100,-100,0,0,100,0.00,40.00,0,-999,0,0.02
2013-1-10,31,23,16,-100,-100,-100,0,0,100,0.00,40.00,0,-999,0,0.04
2013-1-11,27,21,6,-100,-100,-100,0,0,100,0.00,40.00,0,-999,0,0.01
2013-1-12,28,15,3,-100,-100,-100,0,0,100,0.00,40.00,0,-999,0,0.01
2013-1-13,29,13,1,-100,-100,-100,0,0,100,0.00,40.00,0,-999,0,0.00
2013-1-14,41,26,11,-100,-100,-100,0,0,100,0.00,40.00,0,-999,0,0.00
2013-1-15,53,32,18,-100,-100,-100,0,0,100,0.00,40.00,0,-999,0,0.00
2013-1-16,57,35,23,-100,-100,-100,0,0,100,0.00,40.00,0,-999,0,0.00
2013-1-17,55,40,26,-100,-100,-100,0,0,100,0.00,40.00,0,-999,0,0.00
2013-1-18,55,40,30,-100,-100,-100,0,0,100,0.00,40.00,0,-999,0,0.00
2013-1-19,60,40,29,-100,-100,-100,0,0,100,0.00,40.00,0,-999,0,0.00
2013-1-20,48,33,25,-100,-100,-100,0,0,100,0.00,40.00,0,-999,0,0.00
2013-1-21,54,37,26,-100,-100,-100,0,0,100,0.00,40.00,0,-999,0,0.00
2013-1-22,46,31,22,-100,-100,-100,0,0,100,0.00,40.00,0,-999,0,0.00
2013-1-23,49,39,34,-100,-100,-100,0,0,100,0.00,40.00,0,-999,0,0.01
2013-1-24,55,40,31,-100,-100,-100,0,0,100,0.00,40.00,0,-999,0,0.01
2013-1-25,43,41,38,-100,-100,-100,0,0,100,0.00,40.00,0,-999,0,0.32
2013-1-26,39,33,27,-100,-100,-100,0,0,100,0.00,40.00,0,-999,0,0.11
2013-1-27,35,29,24,-100,-100,-100,0,0,100,0.00,40.00,0,-999,0,0.01
2013-1-28,33,30,27,-100,-100,-100,0,0,100,0.00,40.00,0,-999,0,0.03
2013-1-29,41,36,33,-100,-100,-100,0,0,100,0.00,40.00,0,-999,0,0.03
2013-1-30,42,38,34,-100,-100,-100,0,0,100,0.00,40.00,0,-999,0,0.02
2013-1-31,47,38,28,-100,-100,-100,0,0,100,0.00,40.00,0,-999,0,0.01
2013-2-1,52,37,28,-100,-100,-100,0,0,100,0.00,40.00,0,-999,0,0.00
2013-2-2,49,36,24,-100,-100,-100,0,0,100,0.00,40.00,0,-999,0,0.00
2013-2-3,53,42,32,-100,-100,-100,0,0,100,0.00,40.00,0,-999,0,0.00
2013-2-4,52,41,33,-100,-100,-100,0,0,100,0.00,40.00,0,-999,0,0.00
2013-2-5,43,38,32,-100,-100,-100,0,0,100,0.00,40.00,0,-999,0,0.00
2013-2-6,46,37,31,-100,-100,-100,0,0,100,0.00,40.00,0,-999,0,0.00
2013-2-7,40,33,23,-100,-100,-100,0,0,100,0.00,40.00,0,-999,0,0.01
2013-2-8,38,27,16,-100,-100,-100,0,0,100,0.00,40.00,0,-999,0,0.01
2013-2-9,40,29,19,-100,-100,-100,0,0,100,0.00,40.00,0,-999,0,0.00
2013-2-10,44,32,21,-100,-100,-100,0,0,100,0.00,40.00,0,-999,0,0.00
2013-2-11,43,32,20,-100,-100,-100,0,0,100,0.00,40.00,0,-999,0,0.00
2013-2-12,45,34,24,-100,-100,-100,0,0,100,0.00,40.00,0,-999,0,0.00
2013-2-13,43,36,31,-100,-100,-100,0,0,100,0.00,40.00,0,-999,0,0.00
2013-2-14,50,36,25,-100,-100,-100,0,0,100,0.00,40.00,0,-999,0,0.00
2013-2-15,58,42,27,-100,-100,-100,0,0,100,0.00,40.00,0,-999,0,0.00
2013-2-16,49,40,25,-100,-100,-100,0,0,100,0.00,40.00,0,-999,0,0.01
2013-2-17,42,29,19,-100,-100,-100,0,0,100,0.00,40.00,0,-999,0,0.01
2013-2-18,39,31,23,-100,-100,-100,0,0,100,0.00,40.00,0,-999,0,0.00
2013-2-19,38,30,18,-100,-100,-100,0,0,100,0.00,40.00,0,-999,0,0.00
2013-2-20,38,30,19,-100,-100,-100,0,0,100,0.00,40.00,0,-999,0,0.00
2013-2-21,35,32,27,-100,-100,-100,0,0,100,0.00,40.00,0,-999,0,0.00
2013-2-22,41,35,29,-100,-100,-100,0,0,100,0.00,40.00,0,-999,0,0.00
2013-2-23,36,28,17,-100,-100,-100,0,0,100,0.00,40.00,0,-999,0,0.00
2013-2-24,47,32,20,-100,-100,-100,0,0,100,0.00,40.00,0,-999,0,0.01
2013-2-25,39,33,23,-100,-100,-100,0,0,100,0.00,40.00,0,-999,0,0.00
2013-2-26,46,31,16,-100,-100,-100,0,0,100,0.00,40.00,0,-999,0,0.00
2013-2-27,46,39,27,-100,-100,-100,0,0,100,0.00,40.00,0,-999,0,0.00
2013-2-28,51,45,40,-100,-100,-100,0,0,100,0.00,40.00,0,-999,0,0.00
2013-3-1,61,48,39,-100,-100,-100,0,0,100,0.00,40.00,0,-999,0,0.00
2013-3-2,54,48,40,-100,-100,-100,0,0,100,0.00,40.00,0,-999,0,0.00
2013-3-3,42,33,16,-100,-100,-100,0,0,100,0.00,40.00,0,-999,0,0.01
2013-3-4,49,36,13,-100,-100,-100,0,0,100,0.00,40.00,0,-999,0,0.01
2013-3-5,43,34,24,-100,-100,-100,0,0,100,0.00,40.00,0,-999,0,0.03
2013-3-6,39,34,27,-100,-100,-100,0,0,100,0.00,40.00,0,-999,0,0.17
2013-3-7,44,33,22,-100,-100,-100,0,0,100,0.00,40.00,0,-999,0,0.01
2013-3-8,44,32,19,-100,-100,-100,0,0,100,0.00,40.00,0,-999,0,0.01
2013-3-9,52,35,18,-100,-100,-100,0,0,100,0.00,40.00,0,-999,0,0.01
2013-3-10,55,41,23,-100,-100,-100,0,0,100,0.00,40.00,0,-999,0,0.01
2013-3-11,51,43,36,-100,-100,-100,0,0,100,0.00,40.00,0,-999,0,0.00
2013-3-12,59,46,34,-100,-100,-100,0,0,100,0.00,40.00,0,-999,0,0.00
2013-3-13,64,50,38,-100,-100,-100,0,0,100,0.00,40.00,0,-999,0,0.01
2013-3-14,62,51,36,-100,-100,-100,0,0,100,0.00,40.00,0,-999,0,0.01
2013-3-15,56,46,32,-100,-100,-100,0,0,100,0.00,40.00,0,-999,0,0.00
2013-3-16,49,38,28,-100,-100,-100,0,0,100,0.00,40.00,0,-999,0,0.00
2013-3-17,39,30,20,-100,-100,-100,0,0,100,0.00,40.00,0,-999,0,0.01
2013-3-18,49,34,20,-100,-100,-100,0,0,100,0.00,40.00,0,-999,0,0.01
2013-3-19,50,37,21,-100,-100,-100,0,0,100,0.00,40.00,0,-999,0,0.05
2013-3-20,49,41,28,-100,-100,-100,0,0,100,0.00,40.00,0,-999,0,0.15
2013-3-21,39,30,23,-100,-100,-100,0,0,100,0.00,40.00,0,-999,0,0.01
2013-3-22,35,28,14,-100,-100,-100,0,0,100,0.00,40.00,0,-999,0,0.00
2013-3-23,42,30,19,-100,-100,-100,0,0,100,0.00,40.00,0,-999,0,0.00
2013-3-24,44,34,16,-100,-100,-100,0,0,100,0.00,40.00,0,-999,0,0.01
2013-3-25,48,39,27,-100,-100,-100,0,0,100,0.00,40.00,0,-999,0,0.00
2013-3-26,48,40,34,-100,-100,-100,0,0,100,0.00,40.00,0,-999,0,0.02
2013-3-27,56,43,31,-100,-100,-100,0,0,100,0.00,40.00,0,-999,0,0.06
2013-3-28,56,46,36,-100,-100,-100,0,0,100,0.00,40.00,0,-999,0,0.01
2013-3-29,60,48,39,-100,-100,-100,0,0,100,0.00,40.00,0,-999,0,0.03
2013-3-30,65,53,32,-100,-100,-100,0,0,100,0.00,40.00,0,-999,0,0.01
2013-3-31,64,53,31,-100,-100,-100,0,0,100,0.00,40.00,0,-999,0,0.00
2013-4-1,62,50,29,-100,-100,-100,0,0,100,0.00,40.00,0,-999,0,0.01
2013-4-2,61,47,29,-100,-100,-100,0,0,100,0.00,40.00,0,-999,0,0.01
2013-4-3,64,47,27,-100,-100,-100,0,0,100,0.00,40.00,0,-999,0,0.01
2013-4-4,63,50,38,-100,-100,-100,0,0,100,0.00,40.00,0,-999,0,0.18
2013-4-5,54,46,39,-100,-100,-100,0,0,100,0.00,40.00,0,-999,0,0.12
2013-4-6,49,43,39,-100,-100,-100,0,0,100,0.00,40.00,0,-999,0,0.13
2013-4-7,45,40,28,-100,-100,-100,0,0,100,0.00,40.00,0,-999,0,0.11
2013-4-8,43,33,26,-100,-100,-100,0,0,100,0.00,40.00,0,-999,0,0.02
2013-4-9,55,40,21,-100,-100,-100,0,0,100,0.00,40.00,0,-999,0,0.00
2013-4-10,58,48,31,-100,-100,-100,0,0,100,0.00,40.00,0,-999,0,0.00
2013-4-11,48,37,25,-100,-100,-100,0,0,100,0.00,40.00,0,-999,0,0.00
2013-4-12,59,45,21,-100,-100,-100,0,0,100,0.00,40.00,0,-999,0,0.00
2013-4-13,43,38,27,-100,-100,-100,0,0,100,0.00,40.00,0,-999,0,0.00
2013-4-14,43,33,18,-100,-100,-100,0,0,100,0.00,40.00,0,-999,0,0.00
2013-4-15,41,32,17,-100,-100,-100,0,0,100,0.00,40.00,0,-999,0,0.08
2013-4-16,41,33,20,-100,-100,-100,0,0,100,0.00,40.00,0,-999,0,0.02
2013-4-17,48,38,16,-100,-100,-100,0,0,100,0.00,40.00,0,-999,0,0.01
2013-4-18,57,44,28,-100,-100,-100,0,0,100,0.00,40.00,0,-999,0,0.01
2013-4-19,56,46,39,-100,-100,-100,0,0,100,0.00,40.00,0,-999,0,0.08
2013-4-20,57,44,27,-100,-100,-100,0,0,100,0.00,40.00,0,-999,0,0.01
2013-4-21,57,44,26,-100,-100,-100,0,0,100,0.00,40.00,0,-999,0,0.00
2013-4-22,50,41,25,-100,-100,-100,0,0,100,0.00,40.00,0,-999,0,0.00
2013-4-23,59,46,14,-100,-100,-100,0,0,100,0.00,40.00,0,-999,0,0.00
2013-4-24,67,49,22,-100,-100,-100,0,0,100,0.00,40.00,0,-999,0,0.00
2013-4-25,69,54,30,-100,-100,-100,0,0,100,0.00,40.00,0,-999,0,0.00
2013-4-26,74,60,35,-100,-100,-100,0,0,100,0.00,40.00,0,-999,0,0.00
2013-4-27,69,57,36,-100,-100,-100,0,0,100,0.00,40.00,0,-999,0,0.00
2013-4-28,60,51,32,-100,-100,-100,0,0,100,0.00,40.00,0,-999,0,0.00
2013-4-29,54,49,45,-100,-100,-100,0,0,100,0.00,40.00,0,-999,0,0.00
2013-4-30,46,39,29,-100,-100,-100,0,0,100,0.00,40.00,0,-999,0,0.00
2013-5-1,59,48,16,-100,-100,-100,0,0,100,0.00,40.00,0,-999,0,0.01
2013-5-2,72,58,32,-100,-100,-100,0,0,100,0.00,40.00,0,-999,0,0.01
2013-5-3,67,57,31,-100,-100,-100,0,0,100,0.00,40.00,0,-999,0,0.01
2013-5-4,67,55,31,-100,-100,-100,0,0,100,0.00,40.00,0,-999,0,0.01
2013-5-5,71,59,40,-100,-100,-100,0,0,100,0.00,40.00,0,-999,0,0.01
2013-5-6,76,65,36,-100,-100,-100,0,0,100,0.00,40.00,0,-999,0,0.00
2013-5-7,76,62,42,-100,-100,-100,0,0,100,0.00,40.00,0,-999,0,0.00
2013-5-8,79,61,38,-100,-100,-100,0,0,100,0.00,40.00,0,-999,0,0.00
2013-5-9,81,63,43,-100,-100,-100,0,0,100,0.00,40.00,0,-999,0,0.00
2013-5-10,83,67,45,-100,-100,-100,0,0,100,0.00,40.00,0,-999,0,0.00
2013-5-11,85,71,46,-100,-100,-100,0,0,100,0.00,40.00,0,-999,0,0.00
2013-5-12,79,67,50,-100,-100,-100,0,0,100,0.00,40.00,0,-999,0,0.00
2013-5-13,62,54,41,-100,-100,-100,0,0,100,0.00,40.00,0,-999,0,0.00
2013-5-14,64,54,30,-100,-100,-100,0,0,100,0.00,40.00,0,-999,0,0.00
2013-5-15,61,48,34,-100,-100,-100,0,0,100,0.00,40.00,0,-999,0,0.00
2013-5-16,61,46,31,-100,-100,-100,0,0,100,0.00,40.00,0,-999,0,0.14
2013-5-17,57,47,41,-100,-100,-100,0,0,100,0.00,40.00,0,-999,0,0.37
2013-5-18,54,46,37,-100,-100,-100,0,0,100,0.00,40.00,0,-999,0,0.02
2013-5-19,60,46,34,-100,-100,-100,0,0,100,0.00,40.00,0,-999,0,0.02
2013-5-20,74,54,30,-100,-100,-100,0,0,100,0.00,40.00,0,-999,0,0.01
2013-5-21,55,44,32,-100,-100,-100,0,0,100,0.00,40.00,0,-999,0,0.10
2013-5-22,42,36,29,-100,-100,-100,0,0,100,0.00,40.00,0,-999,0,0.06
2013-5-23,54,43,27,-100,-100,-100,0,0,100,0.00,40.00,0,-999,0,0.03
2013-5-24,57,45,32,-100,-100,-100,0,0,100,0.00,40.00,0,-999,0,0.03
2013-5-25,62,48,26,-100,-100,-100,0,0,100,0.00,40.00,0,-999,0,0.01
2013-5-26,61,51,45,-100,-100,-100,0,0,100,0.00,40.00,0,-999,0,0.04
2013-5-27,58,47,38,-100,-100,-100,0,0,100,0.00,40.00,0,-999,0,0.16
2013-5-28,61,50,42,-100,-100,-100,0,0,100,0.00,40.00,0,-999,0,0.07
2013-5-29,57,49,44,-100,-100,-100,0,0,100,0.00,40.00,0,-999,0,0.19
2013-5-30,42,37,31,-100,-100,-100,0,0,100,0.00,40.00,0,-999,0,0.05
2013-5-31,67,60,51,-100,-100,-100,0,0,100,0.00,40.00,0,-999,0,0.00
2013-6-1,73,60,34,-100,-100,-100,0,0,100,0.00,40.00,0,-999,0,0.00
2013-6-2,67,55,37,-100,-100,-100,0,0,100,0.00,40.00,0,-999,0,0.00
2013-6-3,72,58,32,-100,-100,-100,0,0,100,0.00,40.00,0,-999,0,0.00
2013-6-4,77,64,35,-100,-100,-100,0,0,100,0.00,40.00,0,-999,0,0.00
2013-6-5,84,70,39,-100,-100,-100,0,0,100,0.00,40.00,0,-999,0,0.00
2013-6-6,84,65,44,-100,-100,-100,0,0,100,0.00,40.00,0,-999,0,0.00
2013-6-7,82,64,46,-100,-100,-100,0,0,100,0.00,40.00,0,-999,0,0.00
2013-6-8,83,64,37,-100,-100,-100,0,0,100,0.00,40.00,0,-999,0,0.00
2013-6-9,78,64,45,-100,-100,-100,0,0,100,0.00,40.00,0,-999,0,0.00
2013-6-10,75,58,32,-100,-100,-100,0,0,100,0.00,40.00,0,-999,0,0.00
2013-6-11,62,49,32,-100,-100,-100,0,0,100,0.00,40.00,0,-999,0,0.00
2013-6-12,62,50,36,-100,-100,-100,0,0,100,0.00,40.00,0,-999,0,0.00
2013-6-13,55,46,34,-100,-100,-100,0,0,100,0.00,40.00,0,-999,0,0.05
2013-6-14,71,56,35,-100,-100,-100,0,0,100,0.00,40.00,0,-999,0,0.02
2013-6-15,79,67,31,-100,-100,-100,0,0,100,0.00,40.00,0,-999,0,0.00
2013-6-16,78,63,48,-100,-100,-100,0,0,100,0.00,40.00,0,-999,0,0.00
2013-6-17,74,61,40,-100,-100,-100,0,0,100,0.00,40.00,0,-999,0,0.01
2013-6-18,57,51,44,-100,-100,-100,0,0,100,0.00,40.00,0,-999,0,0.29
2013-6-19,58,48,42,-100,-100,-100,0,0,100,0.00,40.00,0,-999,0,0.43
2013-6-20,57,46,36,-100,-100,-100,0,0,100,0.00,40.00,0,-999,0,0.01
2013-6-22,76,66,52,-100,-100,-100,0,0,100,0.00,40.00,0,-999,0,0.01
2013-6-23,64,58,53,-100,-100,-100,0,0,100,0.00,40.00,0,-999,0,0.20
2013-6-24,60,53,48,-100,-100,-100,0,0,100,0.00,40.00,0,-999,0,0.33
2013-6-25,63,56,50,-100,-100,-100,0,0,100,0.00,40.00,0,-999,0,0.08
2013-6-26,66,57,49,-100,-100,-100,0,0,100,0.00,40.00,0,-999,0,0.01
2013-6-27,82,65,45,-100,-100,-100,0,0,100,0.00,40.00,0,-999,0,0.00
2013-6-28,88,73,51,-100,-100,-100,0,0,100,0.00,40.00,0,-999,0,0.00
2013-6-29,86,75,55,-100,-100,-100,0,0,100,0.00,40.00,0,-999,0,0.00
2013-6-30,92,78,55,-100,-100,-100,0,0,100,0.00,40.00,0,-999,0,0.00
2013-7-1,95,80,61,-100,-100,-100,0,0,100,0.00,40.00,0,-999,0,0.00
2013-7-2,98,81,58,-100,-100,-100,0,0,100,0.00,40.00,0,-999,0,0.00
2013-7-3,87,74,59,-100,-100,-100,0,0,100,0.00,40.00,0,-999,0,0.00
2013-7-4,79,69,55,-100,-100,-100,0,0,100,0.00,40.00,0,-999,0,0.00
2013-7-5,74,60,45,-100,-100,-100,0,0,100,0.00,40.00,0,-999,0,0.00
2013-7-6,83,66,37,-100,-100,-100,0,0,100,0.00,40.00,0,-999,0,0.00
2013-7-7,84,73,57,-100,-100,-100,0,0,100,0.00,40.00,0,-999,0,0.00
2013-7-8,85,67,51,-100,-100,-100,0,0,100,0.00,40.00,0,-999,0,0.00
2013-7-9,91,80,53,-100,-100,-100,0,0,100,0.00,40.00,0,-999,0,0.00
2013-7-10,87,74,48,-100,-100,-100,0,0,100,0.00,40.00,0,-999,0,0.00
2013-7-11,79,65,48,-100,-100,-100,0,0,100,0.00,40.00,0,-999,0,0.00
2013-7-12,76,61,43,-100,-100,-100,0,0,100,0.00,40.00,0,-999,0,0.00
2013-7-13,77,65,36,-100,-100,-100,0,0,100,0.00,40.00,0,-999,0,0.00
2013-7-14,86,77,57,-100,-100,-100,0,0,100,0.00,40.00,0,-999,0,0.00
2013-7-15,86,76,58,-100,-100,-100,0,0,100,0.00,40.00,0,-999,0,0.00
2013-7-16,83,69,48,-100,-100,-100,0,0,100,0.00,40.00,0,-999,0,0.00
2013-7-17,86,76,48,-100,-100,-100,0,0,100,0.00,40.00,0,-999,0,0.00
2013-7-18,90,80,60,-100,-100,-100,0,0,100,0.00,40.00,0,-999,0,0.00
2013-7-19,92,82,60,-100,-100,-100,0,0,100,0.00,40.00,0,-999,0,0.00
2013-7-20,92,82,60,-100,-100,-100,0,0,100,0.00,40.00,0,-999,0,0.00
2013-7-21,92,82,60,-100,-100,-100,0,0,100,0.00,40.00,0,-999,0,0.00
2013-7-22,91,79,52,-100,-100,-100,0,0,100,0.00,40.00,0,-999,0,0.00
2013-7-23,93,84,61,-100,-100,-100,0,0,100,0.00,40.00,0,-999,0,0.00
2013-7-24,93,78,57,-100,-100,-100,0,0,100,0.00,40.00,0,-999,0,0.00
2013-7-25,93,81,56,-100,-100,-100,0,0,100,0.00,40.00,0,-999,0,0.00
2013-7-26,92,76,54,-100,-100,-100,0,0,100,0.00,40.00,0,-999,0,0.00
2013-7-27,82,69,53,-100,-100,-100,0,0,100,0.00,40.00,0,-999,0,0.00
2013-7-28,80,67,45,-100,-100,-100,0,0,100,0.00,40.00,0,-999,0,0.00
2013-7-29,82,67,40,-100,-100,-100,0,0,100,0.00,40.00,0,-999,0,0.00
2013-7-30,83,72,51,-100,-100,-100,0,0,100,0.00,40.00,0,-999,0,0.00
2013-7-31,79,66,53,-100,-100,-100,0,0,100,0.00,40.00,0,-999,0,0.00
2013-8-1,75,60,51,-100,-100,-100,0,0,100,0.00,40.00,0,-999,0,0.00
2013-8-2,75,58,38,-100,-100,-100,0,0,100,0.00,40.00,0,-999,0,0.00
2013-8-3,82,71,40,-100,-100,-100,0,0,100,0.00,40.00,0,-999,0,0.00
2013-8-4,87,77,53,-100,-100,-100,0,0,100,0.00,40.00,0,-999,0,0.00
2013-8-5,86,74,53,-100,-100,-100,0,0,100,0.00,40.00,0,-999,0,0.00
2013-8-6,89,81,54,-100,-100,-100,0,0,100,0.00,40.00,0,-999,0,0.00
2013-8-7,83,72,51,-100,-100,-100,0,0,100,0.00,40.00,0,-999,0,0.00
2013-8-8,83,72,55,-100,-100,-100,0,0,100,0.00,40.00,0,-999,0,0.00
2013-8-9,83,67,54,-100,-100,-100,0,0,100,0.00,40.00,0,-999,0,0.03
2013-8-10,74,57,45,-100,-100,-100,0,0,100,0.00,40.00,0,-999,0,0.01
2013-8-11,78,64,45,-100,-100,-100,0,0,100,0.00,40.00,0,-999,0,0.00
2013-8-12,82,67,45,-100,-100,-100,0,0,100,0.00,40.00,0,-999,0,0.00
2013-8-13,86,73,46,-100,-100,-100,0,0,100,0.00,40.00,0,-999,0,0.00
2013-8-14,88,76,55,-100,-100,-100,0,0,100,0.00,40.00,0,-999,0,0.00
2013-8-15,87,71,49,-100,-100,-100,0,0,100,0.00,40.00,0,-999,0,0.00
2013-8-16,83,69,49,-100,-100,-100,0,0,100,0.00,40.00,0,-999,0,0.31
2013-8-17,81,66,50,-100,-100,-100,0,0,100,0.00,40.00,0,-999,0,0.01
2013-8-18,86,68,47,-100,-100,-100,0,0,100,0.00,40.00,0,-999,0,0.01
2013-8-19,86,74,51,-100,-100,-100,0,0,100,0.00,40.00,0,-999,0,0.00
2013-8-20,83,69,48,-100,-100,-100,0,0,100,0.00,40.00,0,-999,0,0.00
2013-8-21,86,72,45,-100,-100,-100,0,0,100,0.00,40.00,0,-999,0,0.00
2013-8-22,81,65,51,-100,-100,-100,0,0,100,0.00,40.00,0,-999,0,0.00
2013-8-23,78,66,50,-100,-100,-100,0,0,100,0.00,40.00,0,-999,0,0.00
2013-8-24,77,62,45,-100,-100,-100,0,0,100,0.00,40.00,0,-999,0,0.16
2013-8-25,73,58,51,-100,-100,-100,0,0,100,0.00,40.00,0,-999,0,0.65
2013-8-26,74,61,48,-100,-100,-100,0,0,100,0.00,40.00,0,-999,0,0.02
2013-8-27,72,57,44,-100,-100,-100,0,0,100,0.00,40.00,0,-999,0,0.00
2013-8-28,84,76,65,-100,-100,-100,0,0,100,0.00,40.00,0,-999,0,0.00
2013-8-29,80,67,54,-100,-100,-100,0,0,100,0.00,40.00,0,-999,0,0.00
2013-8-30,79,65,50,-100,-100,-100,0,0,100,0.00,40.00,0,-999,0,0.00
2013-8-31,83,68,46,-100,-100,-100,0,0,100,0.00,40.00,0,-999,0,0.00
2013-9-1,91,74,51,-100,-100,-100,0,0,100,0.00,40.00,0,-999,0,0.00
2013-9-2,80,64,46,-100,-100,-100,0,0,100,0.00,40.00,0,-999,0,0.00
2013-9-3,83,68,47,-100,-100,-100,0,0,100,0.00,40.00,0,-999,0,0.01
2013-9-4,80,64,45,-100,-100,-100,0,0,100,0.00,40.00,0,-999,0,0.01
2013-9-5,72,60,47,-100,-100,-100,0,0,100,0.00,40.00,0,-999,0,0.01
2013-9-6,67,55,45,-100,-100,-100,0,0,100,0.00,40.00,0,-999,0,0.04
2013-9-8,74,63,42,-100,-100,-100,0,0,100,0.00,40.00,0,-999,0,0.00
2013-9-9,82,71,46,-100,-100,-100,0,0,100,0.00,40.00,0,-999,0,0.00
2013-9-10,86,74,49,-100,-100,-100,0,0,100,0.00,40.00,0,-999,0,0.00
2013-9-11,86,79,60,-100,-100,-100,0,0,100,0.00,40.00,0,-999,0,0.00
2013-9-12,88,79,49,-100,-100,-100,0,0,100,0.00,40.00,0,-999,0,0.00
2013-9-13,85,74,53,-100,-100,-100,0,0,100,0.00,40.00,0,-999,0,0.00
2013-9-14,86,74,50,-100,-100,-100,0,0,100,0.00,40.00,0,-999,0,0.00
2013-9-15,88,69,53,-100,-100,-100,0,0,100,0.00,40.00,0,-999,0,0.00
2013-9-16,68,59,42,-100,-100,-100,0,0,100,0.00,40.00,0,-999,0,0.00
2013-9-17,61,50,41,-100,-100,-100,0,0,100,0.00,40.00,0,-999,0,0.05
2013-9-18,47,42,39,-100,-100,-100,0,0,100,0.00,40.00,0,-999,0,0.06
2013-9-19,79,62,38,-100,-100,-100,0,0,100,0.00,40.00,0,-999,0,0.00
2013-9-20,77,60,43,-100,-100,-100,0,0,100,0.00,40.00,0,-999,0,0.02
2013-9-21,64,53,45,-100,-100,-100,0,0,100,0.00,40.00,0,-999,0,0.11
2013-9-22,59,49,38,-100,-100,-100,0,0,100,0.00,40.00,0,-999,0,0.14
2013-9-23,61,51,42,-100,-100,-100,0,0,100,0.00,40.00,0,-999,0,0.02
2013-9-24,50,46,40,-100,-100,-100,0,0,100,0.00,40.00,0,-999,0,0.43
2013-9-25,47,42,38,-100,-100,-100,0,0,100,0.00,40.00,0,-999,0,0.02
2013-9-26,51,42,30,-100,-100,-100,0,0,100,0.00,40.00,0,-999,0,0.13
2013-9-27,57,46,32,-100,-100,-100,0,0,100,0.00,40.00,0,-999,0,0.16
2013-9-28,60,54,48,-100,-100,-100,0,0,100,0.00,40.00,0,-999,0,0.18
2013-9-29,52,46,41,-100,-100,-100,0,0,100,0.00,40.00,0,-999,0,0.44
2013-9-30,51,45,38,-100,-100,-100,0,0,100,0.00,40.00,0,-999,0,0.29
2013-10-1,48,38,28,-100,-100,-100,0,0,100,0.00,40.00,0,-999,0,0.01
2013-10-2,46,38,26,-100,-100,-100,0,0,100,0.00,40.00,0,-999,0,0.04
2013-10-3,49,39,28,-100,-100,-100,0,0,100,0.00,40.00,0,-999,0,0.15
2013-10-4,57,43,25,-100,-100,-100,0,0,100,0.00,40.00,0,-999,0,0.02
2013-10-5,73,54,31,-100,-100,-100,0,0,100,0.00,40.00,0,-999,0,0.01
2013-10-6,73,57,37,-100,-100,-100,0,0,100,0.00,40.00,0,-999,0,0.00
2013-10-7,53,47,38,-100,-100,-100,0,0,100,0.00,40.00,0,-999,0,0.01
2013-10-8,45,38,31,-100,-100,-100,0,0,100,0.00,40.00,0,-999,0,0.02
2013-10-9,43,37,31,-100,-100,-100,0,0,100,0.00,40.00,0,-999,0,0.02
2013-10-10,54,43,30,-100,-100,-100,0,0,100,0.00,40.00,0,-999,0,0.01
2013-10-11,52,40,28,-100,-100,-100,0,0,100,0.00,40.00,0,-999,0,0.00
2013-10-12,45,38,30,-100,-100,-100,0,0,100,0.00,40.00,0,-999,0,0.00
2013-10-13,49,42,34,-100,-100,-100,0,0,100,0.00,40.00,0,-999,0,0.00
2013-10-14,53,39,25,-100,-100,-100,0,0,100,0.00,40.00,0,-999,0,0.00
2013-10-15,63,41,24,-100,-100,-100,0,0,100,0.00,40.00,0,-999,0,0.00
2013-10-16,58,49,31,-100,-100,-100,0,0,100,0.00,40.00,0,-999,0,0.00
2013-10-17,57,44,27,-100,-100,-100,0,0,100,0.00,40.00,0,-999,0,0.00
2013-10-18,62,48,26,-100,-100,-100,0,0,100,0.00,40.00,0,-999,0,0.00
2013-10-19,73,57,33,-100,-100,-100,0,0,100,0.00,40.00,0,-999,0,0.00
2013-10-20,67,55,32,-100,-100,-100,0,0,100,0.00,40.00,0,-999,0,0.00
2013-10-21,67,54,34,-100,-100,-100,0,0,100,0.00,40.00,0,-999,0,0.00
2013-10-22,68,53,33,-100,-100,-100,0,0,100,0.00,40.00,0,-999,0,0.00
2013-10-23,64,52,32,-100,-100,-100,0,0,100,0.00,40.00,0,-999,0,0.00
2013-10-24,66,50,30,-100,-100,-100,0,0,100,0.00,40.00,0,-999,0,0.00
2013-10-25,69,53,33,-100,-100,-100,0,0,100,0.00,40.00,0,-999,0,0.00
2013-10-26,65,46,30,-100,-100,-100,0,0,100,0.00,40.00,0,-999,0,0.00
2013-10-27,46,38,31,-100,-100,-100,0,0,100,0.00,40.00,0,-999,0,0.21
2013-10-28,40,33,25,-100,-100,-100,0,0,100,0.00,40.00,0,-999,0,0.29
2013-10-29,44,30,20,-100,-100,-100,0,0,100,0.00,40.00,0,-999,0,0.01
2013-10-30,54,36,24,-100,-100,-100,0,0,100,0.00,40.00,0,-999,0,0.01
2013-10-31,59,48,39,-100,-100,-100,0,0,100,0.00,40.00,0,-999,0,0.01
2013-11-1,61,43,29,-100,-100,-100,0,0,100,0.00,40.00,0,-999,0,0.01
2013-11-2,49,42,29,-100,-100,-100,0,0,100,0.00,40.00,0,-999,0,0.03
2013-11-3,39,34,23,-100,-100,-100,0,0,100,0.00,40.00,0,-999,0,0.02
2013-11-4,43,37,29,-100,-100,-100,0,0,100,0.00,40.00,0,-999,0,0.01
2013-11-5,47,42,37,-100,-100,-100,0,0,100,0.00,40.00,0,-999,0,0.05
2013-11-6,54,46,37,-100,-100,-100,0,0,100,0.00,40.00,0,-999,0,0.05
2013-11-7,51,44,37,-100,-100,-100,0,0,100,0.00,40.00,0,-999,0,0.15
2013-11-8,44,38,34,-100,-100,-100,0,0,100,0.00,40.00,0,-999,0,0.01
2013-11-9,50,38,28,-100,-100,-100,0,0,100,0.00,40.00,0,-999,0,0.00
2013-11-10,60,44,33,-100,-100,-100,0,0,100,0.00,40.00,0,-999,0,0.00
2013-11-11,39,36,30,-100,-100,-100,0,0,100,0.00,40.00,0,-999,0,0.00
2013-11-12,58,47,36,-100,-100,-100,0,0,100,0.00,40.00,0,-999,0,0.01
2013-11-13,55,40,28,-100,-100,-100,0,0,100,0.00,40.00,0,-999,0,0.01
2013-11-14,41,35,25,-100,-100,-100,0,0,100,0.00,40.00,0,-999,0,0.01
2013-11-15,39,32,21,-100,-100,-100,0,0,100,0.00,40.00,0,-999,0,0.00
2013-11-16,42,38,35,-100,-100,-100,0,0,100,0.00,40.00,0,-999,0,0.01
2013-11-17,49,38,27,-100,-100,-100,0,0,100,0.00,40.00,0,-999,0,0.01
2013-11-18,48,44,39,-100,-100,-100,0,0,100,0.00,40.00,0,-999,0,0.00
2013-11-19,48,45,39,-100,-100,-100,0,0,100,0.00,40.00,0,-999,0,0.02
2013-11-20,38,28,10,-100,-100,-100,0,0,100,0.00,40.00,0,-999,0,0.01
2013-11-21,30,20,5,-100,-100,-100,0,0,100,0.00,40.00,0,-999,0,0.01
2013-11-22,34,21,10,-100,-100,-100,0,0,100,0.00,40.00,0,-999,0,0.00
2013-11-23,38,21,8,-100,-100,-100,0,0,100,0.00,40.00,0,-999,0,0.00
2013-11-24,52,29,14,-100,-100,-100,0,0,100,0.00,40.00,0,-999,0,0.00
2013-11-25,47,30,18,-100,-100,-100,0,0,100,0.00,40.00,0,-999,0,0.00
2013-11-26,50,31,19,-100,-100,-100,0,0,100,0.00,40.00,0,-999,0,0.00
2013-11-27,42,29,20,-100,-100,-100,0,0,100,0.00,40.00,0,-999,0,0.00
2013-11-28,50,30,17,-100,-100,-100,0,0,100,0.00,40.00,0,-999,0,0.00
2013-11-29,54,38,23,-100,-100,-100,0,0,100,0.00,40.00,0,-999,0,0.00
2013-11-30,53,41,35,-100,-100,-100,0,0,100,0.00,40.00,0,-999,0,0.01
2013-12-1,55,49,43,-100,-100,-100,0,0,100,0.00,40.00,0,-999,0,0.04
2013-12-2,45,34,23,-100,-100,-100,0,0,100,0.00,40.00,0,-999,0,0.30
2013-12-3,25,19,9,-100,-100,-100,0,0,100,0.00,40.00,0,-999,0,0.03
2013-12-4,19,16,8,-100,-100,-100,0,0,100,0.00,40.00,0,-999,0,0.01
2013-12-5,25,12,-2,-100,-100,-100,0,0,100,0.00,40.00,0,-999,0,0.00
2013-12-6,12,8,5,-100,-100,-100,0,0,100,0.00,40.00,0,-999,0,0.13
2013-12-7,7,2,-14,-100,-100,-100,0,0,100,0.00,40.00,0,-999,0,0.07
2013-12-8,22,7,-15,-100,-100,-100,0,0,100,0.00,40.00,0,-999,0,0.01
2013-12-9,36,20,2,-100,-100,-100,0,0,100,0.00,40.00,0,-999,0,0.00
2013-12-10,36,25,10,-100,-100,-100,0,0,100,0.00,40.00,0,-999,0,0.00
2013-12-11,42,32,15,-100,-100,-100,0,0,100,0.00,40.00,0,-999,0,0.00
2013-12-12,42,34,28,-100,-100,-100,0,0,100,0.00,40.00,0,-999,0,0.00
2013-12-13,46,36,25,-100,-100,-100,0,0,100,0.00,40.00,0,-999,0,0.00
2013-12-14,48,41,32,-100,-100,-100,0,0,100,0.00,40.00,0,-999,0,0.00
2013-12-15,52,43,29,-100,-100,-100,0,0,100,0.00,40.00,0,-999,0,0.00
2013-12-16,53,39,27,-100,-100,-100,0,0,100,0.00,40.00,0,-999,0,0.00
2013-12-17,59,43,35,-100,-100,-100,0,0,100,0.00,40.00,0,-999,0,0.00
2013-12-18,40,35,29,-100,-100,-100,0,0,100,0.00,40.00,0,-999,0,0.00
2013-12-19,31,24,15,-100,-100,-100,0,0,100,0.00,40.00,0,-999,0,0.00
2013-12-20,40,31,23,-100,-100,-100,0,0,100,0.00,40.00,0,-999,0,0.07
2013-12-21,46,38,34,-100,-100,-100,0,0,100,0.00,40.00,0,-999,0,0.01
2013-12-22,48,40,35,-100,-100,-100,0,0,100,0.00,40.00,0,-999,0,0.00
2013-12-23,51,43,35,-100,-100,-100,0,0,100,0.00,40.00,0,-999,0,0.00
2013-12-24,49,33,24,-100,-100,-100,0,0,100,0.00,40.00,0,-999,0,0.00
2013-12-25,51,42,33,-100,-100,-100,0,0,100,0.00,40.00,0,-999,0,0.00
2013-12-26,55,42,31,-100,-100,-100,0,0,100,0.00,40.00,0,-999,0,0.00
2013-12-27,50,41,30,-100,-100,-100,0,0,100,0.00,40.00,0,-999,0,0.00
2013-12-28,45,30,21,-100,-100,-100,0,0,100,0.00,40.00,0,-999,0,0.01
2013-12-29,51,34,21,-100,-100,-100,0,0,100,0.00,40.00,0,-999,0,0.01
2013-12-30,50,43,38,-100,-100,-100,0,0,100,0.00,40.00,0,-999,0,0.01
2013-12-31,47,41,29,-100,-100,-100,0,0,100,0.00,40.00,0,-999,0,0.01
2014-1-1,52,35,24,-100,-100,-100,0,0,100,0.00,40.00,0,-999,0,0.01
2014-1-2,55,44,28,-100,-100,-100,0,0,100,0.00,40.00,0,-999,0,0.01